Kars, Turkey

4:39 PM EEST on September 29, 2016 (GMT +0300)
Kars

Weather History for LTCF - October, 2013

Change the Weather History Date:

Monday, October 28, 2013

  Actual Average Record
Temperature  
Mean Temperature 36 °F -  
Max Temperature 54 °F - - ()
Min Temperature 19 °F - - ()
Degree Days  
Heating Degree Days 28    
Moisture  
Dew Point 23 °F    
Average Humidity 60    
Maximum Humidity 100    
Minimum Humidity 26    
Precipitation  
Precipitation 0.00 in - - ()
Sea Level Pressure  
Sea Level Pressure 30.16 in    
Wind  
Wind Speed 1 mph ()    
Max Wind Speed 7 mph    
Max Gust Speed -    
Visibility 6.2 miles    
Events      
T = Trace of Precipitation, MM = Missing Value Source: Averaged Metar Reports

Daily Weather History Graph

Daily Weather History Graph

Search for Another Location

Airport or City:

Trip Planner

Search our weather history database for the weather conditions in past years. The results will help you decide how hot, cold, wet, or windy it might be!

Date:

Astronomy

Oct. 28, 2013 Rise Set
Actual Time 5:32 AM EET 4:09 PM EET
Civil Twilight 5:04 AM EET 4:37 PM EET
Nautical Twilight 4:32 AM EET 5:09 PM EET
Astronomical Twilight 4:01 AM EET 5:41 PM EET
Moon No Moon Rise 12:40 PM EET (10/28)
Length of Visible Light 11h 32m
Length of Day
10h 36m
Last Quarter, 36% of the Moon is Illuminated
Oct 28
Last Quarter
Nov 3
New
Nov 10
First Quarter
Nov 17
Full
Nov 25
Last Quarter

Hourly Weather History & Observations

Time (EET) Temp. Windchill Dew Point Humidity Pressure Visibility Wind Dir Wind Speed Gust Speed Precip Events Conditions
12:50 AM 24.8 °F - 23.0 °F 93% 30.18 in - Calm Calm - N/A   Clear
1:50 AM 23.0 °F - 21.2 °F 93% 30.18 in - WNW 1.2 mph - N/A   Clear
2:00 AM 24 °F - 22 °F 87%  in 6 mi WNW 1.2 mph - -  
2:50 AM 23.0 °F - 21.2 °F 93% 30.15 in - SE 1.2 mph - N/A   Clear
3:50 AM 23.0 °F 17.0 °F 21.2 °F 93% 30.15 in - West 4.6 mph - N/A   Clear
4:50 AM 23.0 °F - 23.0 °F 100% 30.15 in - ESE 1.2 mph - N/A   Clear
5:50 AM 23.0 °F - 21.2 °F 93% 30.18 in 6.2 mi Calm Calm - N/A   Partly Cloudy
6:50 AM 24.8 °F - 23.0 °F 93% 30.18 in 6.2 mi WNW 2.3 mph - N/A   Scattered Clouds
7:50 AM 33.8 °F - 24.8 °F 70% 30.18 in 6.2 mi Calm Calm - N/A   Scattered Clouds
8:00 AM 33 °F - 24 °F 60%  in 6 mi Calm Calm - -   Partly Cloudy
8:50 AM 39.2 °F - 28.4 °F 65% 30.18 in 6.2 mi Calm Calm - N/A   Mostly Cloudy
9:50 AM 44.6 °F - 28.4 °F 53% 30.15 in 6.2 mi Calm Calm - N/A   Mostly Cloudy
10:50 AM 51.8 °F - 28.4 °F 41% 30.15 in 6.2 mi Calm Calm - N/A   Mostly Cloudy
11:50 AM 51.8 °F - 28.4 °F 41% 30.15 in 6.2 mi Calm Calm - N/A   Mostly Cloudy
12:50 PM 51.8 °F - 28.4 °F 41% 30.15 in 6.2 mi Calm Calm - N/A   Mostly Cloudy
1:50 PM 53.6 °F - 24.8 °F 33% 30.12 in 6.2 mi Calm Calm - N/A   Mostly Cloudy
2:00 PM 53 °F - 43 °F 58%  in 6 mi WNW 6.9 mph - -   Partly Cloudy
2:50 PM 53.6 °F - 21.2 °F 28% 30.12 in 6.2 mi Calm Calm - N/A   Mostly Cloudy
3:50 PM 53.6 °F - 19.4 °F 26% 30.09 in 6.2 mi Calm Calm - N/A   Mostly Cloudy
4:50 PM 51.8 °F - 17.6 °F 26% 30.09 in 6.2 mi Calm Calm - N/A   Mostly Cloudy
5:50 PM 44.6 °F - 15.8 °F 31% 30.18 in 6.2 mi Calm Calm - N/A   Scattered Clouds
6:50 PM 42.8 °F - 15.8 °F 34% 30.18 in 6.2 mi Calm Calm - N/A   Scattered Clouds
7:50 PM 35.6 °F 32.8 °F 17.6 °F 48% 30.18 in 6.2 mi East 3.5 mph - N/A   Scattered Clouds
8:00 PM 35 °F - 18 °F 37%  in 6 mi ENE 3.5 mph - -   Partly Cloudy
8:50 PM 33.8 °F - 19.4 °F 56% 30.18 in 6.2 mi Calm Calm - N/A   Scattered Clouds
9:50 PM 33.8 °F - 19.4 °F 56% 30.18 in 6.2 mi Calm Calm - N/A   Scattered Clouds
10:50 PM 33.8 °F - 19.4 °F 56% 30.18 in 6.2 mi Calm Calm - N/A   Scattered Clouds
11:50 PM 28.4 °F 24.6 °F 19.4 °F 69% 30.21 in 6.2 mi North 3.5 mph - N/A   Partly Cloudy